Weather observations for the past three days for
Albert Lea, Albert Lea Municipal Airport
Imperial (Metric)
Date Time (cdt) Wind (mph) Vis. (mi.) Weather Sky Cond. Temperature (ºF) Relative Humidity Wind Chill (°F) Heat Index (°F) Pressure Precipitation (in)
Air Dwpt 6 hour altimeter (in) sea level (mb) 1 hr 3 hr 6 hr
Max. Min.
17 17:15 N 15 G 26 0.75 Thunderstorm Heavy Rain in Vicinity BKN002 BKN015 OVC027 71.6 71.6 100% 29.82 0.0
17 16:55 N 9 G 16 10.00 Thunderstorm in Vicinity SCT026 OVC065 75.2 71.6 89% 75 29.82 0.0
17 16:35 S 6 10.00 Overcast OVC065 77 71.6 83% 78 29.82 0.0
17 16:15 S 3 10.00 Overcast OVC075 77 71.6 83% 78 29.8 0.0
17 15:55 S 8 10.00 Overcast OVC075 77 71.6 83% 78 29.8 0.0
17 15:36 S 7 10.00 Mostly Cloudy BKN075 BKN090 75.2 71.6 89% 75 29.81 0.0
17 15:16 S 8 10.00 Mostly Cloudy BKN090 77 69.8 79% 79 29.8 0.0
17 14:55 SE 12 G 17 10.00 Partly Cloudy SCT100 78.8 69.8 74% 81 29.8 0.0
17 14:35 SE 12 10.00 Partly Cloudy SCT100 77 69.8 79% 79 29.8 0.0
17 14:15 SE 12 10.00 Fair CLR 77 68 74% 79 29.82 0.0
17 13:55 SE 14 10.00 Fair CLR 75.2 69.8 83% 75 29.82 0.0
17 13:35 SE 15 G 20 10.00 Fair CLR 75.2 69.8 83% 75 29.82 0.0
17 13:15 SE 10 10.00 Fair CLR 73.4 69.8 89% 29.82 0.0
17 12:55 S 15 G 18 10.00 Fair CLR 69.8 69.8 100% 29.83 0.0
17 12:36 SE 15 G 18 10.00 Fair CLR 68 68 100% 29.83 0.0
17 12:16 SE 10 G 20 10.00 Fair CLR 66.2 66.2 100% 29.85 0.0
17 11:55 SE 15 G 21 10.00 Fair CLR 64.4 64.4 100% 29.84 0.0
17 11:35 SE 12 10.00 Partly Cloudy SCT007 SCT110 64.4 64.4 100% 29.85 0.0
17 11:15 E 10 7.00 Light Rain BKN007 BKN100 62.6 62.6 100% 29.86 0.0
17 10:55 E 7 10.00 Mostly Cloudy BKN007 BKN100 62.6 62.6 100% 29.87 0.0
17 10:35 E 9 10.00 Thunderstorm Light Rain in Vicinity SCT007 SCT023 BKN043 62.6 62.6 100% 29.87 0.0
17 10:15 E 9 7.00 Thunderstorm Light Rain in Vicinity SCT007 BKN020 OVC075 62.6 62.6 100% 29.88 0.0
17 09:55 E 5 10.00 Rain BKN007 BKN022 BKN090 62.6 62.6 100% 29.91 0.0
17 09:35 E 7 7.00 Rain BKN007 BKN016 OVC022 62.6 62.6 100% 29.89 0.0
17 09:16 NE 3 0.00 Rain BKN007 BKN013 OVC036 62.6 62.6 100% 29.9 0.0
17 08:56 Calm 7.00 Thunderstorm Light Rain OVC007 62.6 62.6 100% 29.9 0.0
17 08:35 NE 5 7.00 Thunderstorm Rain BKN007 BKN018 OVC060 62.6 62.6 100% 29.89 0.0
17 08:15 NE 10 3.00 Rain SCT016 BKN048 OVC060 62.6 62.6 100% 29.86 0.0
17 07:55 N 5 7.00 Thunderstorm Light Rain in Vicinity SCT008 BKN046 OVC050 60.8 60.8 100% 29.88 0.0
17 07:35 N 8 10.00 Thunderstorm Light Rain in Vicinity OVC046 60.8 60.8 100% 29.86 0.0
17 07:15 NE 9 10.00 Thunderstorm in Vicinity OVC048 60.8 60.8 100% 29.84 0.0
17 06:55 NE 9 10.00 Thunderstorm in Vicinity BKN050 BKN060 OVC070 60.8 60.8 100% 29.84 0.0
17 06:35 N 15 G 25 7.00 Thunderstorm Light Rain in Vicinity SCT016 SCT030 OVC070 59 59 100% 29.82 0.0
17 06:16 N 13 G 25 5.00 Thunderstorm Heavy Rain SCT013 BKN047 OVC095 59 59 100% 29.85 0.0
17 05:56 N 17 G 29 7.00 Thunderstorm Heavy Rain SCT018 BKN044 OVC100 60.8 59 94% 29.83 0.0
17 05:35 NW 23 G 38 10.00 Thunderstorm Light Rain in Vicinity and Breezy SCT021 BKN033 OVC060 62.6 59 88% 29.81 0.0
17 05:15 W 24 G 38 7.00 Thunderstorm Rain in Vicinity and Breezy SCT021 BKN043 OVC050 71.6 66.2 83% 29.79 0.0
17 04:55 NE 5 10.00 Mostly Cloudy BKN048 BKN060 73.4 71.6 94% 29.74 0.0
17 04:35 Calm 10.00 Thunderstorm in Vicinity SCT046 BKN060 75.2 71.6 89% 75 29.75 0.0
17 04:15 Calm 10.00 Mostly Cloudy BKN044 BKN050 75.2 71.6 89% 75 29.75 0.0
17 03:55 S 3 10.00 Partly Cloudy SCT042 75.2 71.6 89% 75 29.75 0.0
17 03:35 S 7 10.00 Fair CLR 77 71.6 83% 78 29.75 0.0
17 03:15 S 5 10.00 Partly Cloudy SCT034 75.2 73.4 94% 74 29.75 0.0
17 02:56 S 3 10.00 Partly Cloudy SCT031 SCT055 SCT070 75.2 73.4 94% 74 29.74 0.0
17 02:36 S 6 10.00 Partly Cloudy SCT031 77 73.4 89% 78 29.73 0.0
17 02:15 S 3 10.00 Partly Cloudy SCT060 77 73.4 89% 78 29.75 0.0
17 01:55 S 3 10.00 Partly Cloudy SCT070 SCT090 77 71.6 83% 78 29.76 0.0
17 01:35 Calm 10.00 Mostly Cloudy SCT044 SCT055 BKN070 75.2 71.6 89% 75 29.76 0.0
17 01:15 Calm 10.00 Overcast SCT032 OVC060 75.2 71.6 89% 75 29.77 0.0
17 00:55 Calm 10.00 Mostly Cloudy BKN060 75.2 71.6 89% 75 29.76 0.0
17 00:35 Calm 10.00 Partly Cloudy SCT045 75.2 71.6 89% 75 29.76 0.0
17 00:15 Calm 10.00 Partly Cloudy SCT060 75.2 71.6 89% 75 29.77 0.0
16 23:56 Calm 10.00 Mostly Cloudy SCT044 SCT050 BKN060 77 73.4 89% 78 29.78 0.0
16 23:36 Calm 10.00 Mostly Cloudy BKN042 BKN060 BKN095 77 73.4 89% 78 29.78 0.0
16 23:15 S 3 10.00 Overcast BKN042 OVC050 77 71.6 83% 78 29.77 0.0
16 22:55 Calm 10.00 Partly Cloudy SCT047 75.2 71.6 89% 75 29.77 0.0
16 22:35 Calm 10.00 Fair CLR 75.2 71.6 89% 75 29.76 0.0
16 22:15 Calm 7.00 Partly Cloudy SCT046 SCT090 78.8 71.6 79% 82 29.76 0.0
16 21:55 Calm 10.00 Mostly Cloudy BKN044 BKN090 80.6 71.6 74% 85 29.76 0.0
16 21:35 Calm 10.00 Mostly Cloudy BKN044 BKN050 80.6 71.6 74% 85 29.75 0.0
16 21:15 Calm 10.00 Mostly Cloudy BKN042 BKN050 80.6 71.6 74% 85 29.74 0.0
16 20:55 Calm 10.00 Mostly Cloudy BKN042 BKN050 BKN070 82.4 71.6 70% 87 29.73 0.0
16 20:36 Calm 10.00 Mostly Cloudy BKN044 BKN070 82.4 71.6 70% 87 29.72 0.0
16 20:16 W 3 10.00 Mostly Cloudy BKN044 84.2 73.4 70% 91 29.72 0.0
16 19:55 SW 6 10.00 Partly Cloudy SCT050 84.2 73.4 70% 91 29.7 0.0
16 19:35 S 6 10.00 Fair CLR 86 73.4 66% 93 29.69 0.0
16 19:15 S 6 10.00 Fair CLR 86 73.4 66% 93 29.69 0.0
16 18:55 SW 7 10.00 Fair CLR 87.8 73.4 62% 96 29.68 0.0
16 18:35 S 8 G 16 10.00 Fair CLR 87.8 73.4 62% 96 29.67 0.0
16 18:15 SW 12 G 17 10.00 Fair CLR 87.8 73.4 62% 96 29.67 0.0
16 17:55 S 12 G 18 10.00 Partly Cloudy SCT048 87.8 73.4 62% 96 29.67 0.0
16 17:36 S 10 G 16 10.00 Fair CLR 87.8 73.4 62% 96 29.67 0.0
16 17:16 SW 7 G 16 10.00 Fair CLR 87.8 73.4 62% 96 29.66 0.0
16 16:55 SW 12 G 20 10.00 Fair CLR 87.8 73.4 62% 96 29.67 0.0
16 16:35 SW 10 G 21 10.00 Fair CLR 87.8 73.4 62% 96 29.66 0.0
16 16:15 S 14 G 23 10.00 Fair CLR 87.8 73.4 62% 96 29.66 0.0
16 15:55 SW 8 G 20 10.00 Fair CLR 87.8 73.4 62% 96 29.66 0.0
16 15:35 S 15 G 21 10.00 Fair CLR 86 73.4 66% 93 29.67 0.0
16 15:15 S 15 G 20 10.00 Fair CLR 86 71.6 62% 92 29.67 0.0
16 14:55 SW 14 G 25 10.00 Fair CLR 86 71.6 62% 92 29.67 0.0
16 14:35 S 18 G 24 10.00 Fair CLR 84.2 71.6 66% 90 29.67 0.0
16 14:16 SW 15 G 26 10.00 Fair CLR 84.2 71.6 66% 90 29.68 0.0
16 13:56 SW 14 G 21 10.00 Fair CLR 84.2 71.6 66% 90 29.68 0.0
16 13:35 SW 15 G 23 10.00 Fair CLR 84.2 69.8 62% 88 29.68 0.0
16 13:15 SW 14 G 23 10.00 Fair CLR 84.2 71.6 66% 90 29.69 0.0
16 12:55 SW 12 G 23 10.00 Fair CLR 82.4 69.8 66% 86 29.69 0.0
16 12:35 SW 12 G 24 10.00 Fair CLR 82.4 69.8 66% 86 29.69 0.0
16 12:15 S 14 G 25 10.00 Fair CLR 80.6 69.8 70% 84 29.69 0.0
16 11:55 SW 13 G 22 10.00 Fair CLR 80.6 71.6 74% 85 29.7 0.0
16 11:35 S 15 G 22 10.00 Fair CLR 80.6 69.8 70% 84 29.7 0.0
16 11:16 SW 16 G 24 10.00 Fair CLR 78.8 69.8 74% 81 29.69 0.0
16 10:56 SW 14 G 22 10.00 Fair CLR 78.8 69.8 74% 81 29.7 0.0
16 10:35 S 13 G 22 10.00 Fair CLR 78.8 69.8 74% 81 29.69 0.0
16 10:15 S 13 G 25 10.00 Fair CLR 77 69.8 79% 79 29.7 0.0
16 09:55 S 14 G 22 10.00 Fair CLR 75.2 69.8 83% 75 29.7 0.0
16 09:15 S 14 G 24 10.00 Fair CLR 69.8 69.8 100% 29.71 0.0
16 08:55 S 14 G 21 10.00 Fair CLR 71.6 68 88% 29.7 0.0
16 08:35 S 15 G 21 10.00 Fair CLR 69.8 68 94% 29.7 0.0
16 08:15 S 10 10.00 Fair CLR 69.8 69.8 100% 29.71 0.0
16 07:56 S 17 G 22 10.00 Fair CLR 69.8 69.8 100% 29.71 0.0
16 07:36 S 15 G 21 10.00 Fair CLR 68 68 100% 29.71 0.0
16 07:15 S 13 G 17 10.00 Fair CLR 66.2 66.2 100% 29.71 0.0
16 06:55 S 9 G 16 10.00 Partly Cloudy SCT065 SCT070 66.2 66.2 100% 29.71 0.0
16 06:35 S 12 G 16 10.00 Partly Cloudy SCT065 66.2 66.2 100% 29.71 0.0
16 06:15 S 8 10.00 Mostly Cloudy SCT065 BKN085 66.2 66.2 100% 29.71 0.0
16 05:55 S 9 10.00 Mostly Cloudy BKN065 BKN080 66.2 66.2 100% 29.7 0.0
16 05:35 S 9 10.00 Rain SCT065 SCT090 66.2 66.2 100% 29.7 0.0
16 05:15 S 12 10.00 Light Rain NULL 64.4 64.4 100% 29.69 0.0
16 04:56 S 13 7.00 Rain SCT041 BKN060 OVC070 64.4 64.4 100% 29.7 0.0
16 04:36 S 13 G 18 10.00 Overcast SCT048 BKN060 OVC085 64.4 64.4 100% 29.71 0.0
16 04:15 S 12 3.00 Rain SCT006 BKN049 OVC060 64.4 64.4 100% 29.72 0.0
16 03:55 S 10 G 18 10.00 Light Rain SCT009 OVC060 64.4 64.4 100% 29.73 0.0
16 03:35 S 10 1.75 Overcast BKN009 OVC090 66.2 64.4 94% 29.73 0.0
16 03:15 SW 7 10.00 Mostly Cloudy BKN100 69.8 64.4 83% 29.74 0.0
16 02:55 SW 7 10.00 Partly Cloudy SCT120 69.8 64.4 83% 29.72 0.0
16 02:35 S 8 10.00 Partly Cloudy SCT120 69.8 64.4 83% 29.72 0.0
16 02:15 S 7 10.00 Partly Cloudy SCT110 71.6 66.2 83% 29.73 0.0
16 01:55 S 8 10.00 Partly Cloudy SCT110 71.6 66.2 83% 29.73 0.0
16 01:36 S 10 10.00 Fair CLR 71.6 64.4 78% 29.73 0.0
16 01:16 S 6 10.00 Partly Cloudy SCT036 69.8 64.4 83% 29.74 0.0
16 00:55 S 5 10.00 Mostly Cloudy BKN038 BKN048 71.6 64.4 78% 29.75 0.0
16 00:35 Calm 10.00 Overcast BKN040 OVC045 71.6 64.4 78% 29.76 0.0
16 00:15 Calm 10.00 Overcast BKN040 OVC110 71.6 62.6 73% 29.77 0.0
15 23:55 S 9 10.00 Overcast BKN040 BKN046 OVC110 71.6 62.6 73% 29.75 0.0
15 23:35 S 10 10.00 Thunderstorm in Vicinity SCT040 BKN048 69.8 62.6 78% 29.73 0.0
15 23:15 SE 12 10.00 Partly Cloudy SCT037 SCT055 66.2 62.6 88% 29.73 0.0
15 22:55 SE 13 10.00 Thunderstorm in Vicinity BKN038 BKN055 OVC110 64.4 64.4 100% 29.75 0.0
15 22:36 SE 10 G 16 10.00 Thunderstorm in Vicinity BKN038 BKN048 OVC055 62.6 62.6 100% 29.77 0.0
15 22:16 SE 9 10.00 Overcast BKN038 OVC044 62.6 62.6 100% 29.76 0.0
15 21:55 SE 12 10.00 Mostly Cloudy BKN043 62.6 62.6 100% 29.77 0.0
15 21:35 SE 9 10.00 Thunderstorm in Vicinity BKN046 BKN070 64.4 64.4 100% 29.78 0.0
15 21:15 E 6 10.00 Thunderstorm SCT009 SCT046 BKN070 64.4 64.4 100% 29.77 0.0
15 20:55 SE 10 4.00 Thunderstorm Light Rain SCT010 BKN025 OVC110 64.4 64.4 100% 29.78 0.0
15 20:35 SE 14 7.00 Thunderstorm Rain in Vicinity BKN023 BKN038 BKN110 64.4 64.4 100% 29.77 0.0
15 20:15 SE 15 7.00 Thunderstorm Rain in Vicinity SCT021 SCT046 BKN095 66.2 62.6 88% 29.79 0.0
15 19:55 SE 12 10.00 Thunderstorm Light Rain SCT018 SCT028 BKN075 66.2 62.6 88% 29.79 0.0
15 19:35 S 8 5.00 Thunderstorm Heavy Rain SCT018 BKN026 OVC044 66.2 64.4 94% 29.8 0.0
15 19:16 S 13 G 23 7.00 Thunderstorm Rain SCT024 SCT037 OVC050 68 62.6 83% 29.82 0.0
15 18:56 S 10 G 16 10.00 Thunderstorm in Vicinity BKN050 77 60.8 57% 79 29.82 0.0
15 18:35 S 13 G 18 10.00 Fair CLR 78.8 60.8 54% 80 29.8 0.0
15 18:15 S 13 G 17 10.00 Partly Cloudy SCT100 78.8 60.8 54% 80 29.81 0.0
15 17:55 S 13 10.00 Partly Cloudy SCT055 77 60.8 57% 79 29.81 0.0
15 17:35 S 9 G 16 10.00 Partly Cloudy SCT055 75.2 62.6 65% 77 29.82 0.0
15 17:15 S 7 10.00 Overcast OVC055 66.2 66.2 100% 29.83 0.0
15 16:55 S 5 10.00 Mostly Cloudy BKN055 BKN100 66.2 66.2 100% 29.84 0.0
15 16:35 SE 7 10.00 Partly Cloudy SCT055 SCT100 66.2 66.2 100% 29.85 0.0
15 16:16 SE 8 10.00 Partly Cloudy SCT090 64.4 64.4 100% 29.86 0.0
15 15:56 SE 9 10.00 Mostly Cloudy SCT070 BKN090 64.4 64.4 100% 29.87 0.0
15 15:35 SE 12 10.00 Light Rain SCT007 SCT022 SCT055 62.6 62.6 100% 29.88 0.0
15 15:15 SE 21 G 24 3.00 Heavy Rain and Breezy SCT005 BKN017 OVC075 64.4 62.6 94% 29.89 0.0
15 14:55 S 10 4.00 Heavy Rain SCT014 BKN019 OVC060 66.2 60.8 83% 29.92 0.0
15 14:35 S 6 7.00 Light Rain SCT020 SCT036 BKN075 69.8 60.8 73% 29.93 0.0
15 14:15 SE 17 G 22 10.00 Fair CLR 71.6 60.8 69% 29.9 0.0
15 13:55 S 14 G 21 10.00 Fair CLR 71.6 60.8 69% 29.92 0.0
15 13:35 S 14 10.00 Fair CLR 71.6 60.8 69% 29.92 0.0
15 13:15 S 16 G 21 10.00 Light Rain CLR 71.6 60.8 69% 29.94 0.0
15 12:56 S 14 G 18 10.00 Light Drizzle SCT075 SCT090 71.6 60.8 69% 29.95 0.0
15 12:36 S 9 G 13 10.00 Light Rain OVC075 69.8 59 69% 29.96 0.0
15 12:15 S 13 G 17 10.00 Light Rain BKN065 71.6 59 65% 29.95 0.0
15 11:55 SE 9 10.00 Overcast OVC065 71.6 59 65% 29.95 0.0
15 11:35 S 9 7.00 Light Rain SCT027 BKN055 OVC075 69.8 59 69% 29.96 0.0
15 11:15 S 10 G 17 10.00 Mostly Cloudy SCT065 BKN080 71.6 57.2 61% 29.96 0.0
15 10:55 SE 12 10.00 Partly Cloudy SCT090 69.8 57.2 64% 29.95 0.0
15 10:35 SE 15 10.00 Partly Cloudy SCT110 69.8 57.2 64% 29.94 0.0
15 10:15 SE 10 G 18 10.00 Mostly Cloudy BKN110 68 57.2 69% 29.96 0.0
15 09:56 SE 13 G 17 10.00 Partly Cloudy SCT110 68 57.2 69% 29.98 0.0
15 09:36 SE 12 10.00 Partly Cloudy SCT120 66.2 57.2 73% 30 0.0
15 09:15 SE 13 G 17 10.00 Partly Cloudy SCT120 66.2 57.2 73% 30.02 0.0
15 08:55 SE 12 10.00 Fair CLR 66.2 57.2 73% 30.03 0.0
15 08:35 S 10 10.00 Fair CLR 66.2 57.2 73% 30.04 0.0
15 08:15 S 9 10.00 Fair CLR 66.2 57.2 73% 30.05 0.0
15 07:55 S 12 10.00 Fair CLR 66.2 57.2 73% 30.06 0.0
15 07:35 S 9 10.00 Fair CLR 66.2 57.2 73% 30.06 0.0
15 07:15 S 9 G 17 10.00 Fair CLR 66.2 57.2 73% 30.06 0.0
15 06:55 SE 13 10.00 Fair CLR 64.4 57.2 78% 30.02 0.0
15 06:36 SE 6 10.00 Light Rain CLR 64.4 57.2 78% 30.06 0.0
15 06:16 S 8 10.00 Fair CLR 64.4 57.2 78% 30.06 0.0
15 05:55 S 5 10.00 Fair CLR 64.4 57.2 78% 30.05 0.0
15 05:35 S 6 10.00 Partly Cloudy SCT090 SCT110 64.4 57.2 78% 30.05 0.0
15 05:15 S 8 10.00 Light Rain SCT090 64.4 57.2 78% 30.05 0.0
15 04:55 S 8 10.00 Partly Cloudy SCT120 66.2 57.2 73% 30.05 0.0
15 04:35 SW 7 10.00 Partly Cloudy SCT110 64.4 57.2 78% 30.03 0.0
15 04:15 SE 8 10.00 Light Rain OVC110 64.4 57.2 78% 30.03 0.0
15 03:55 SE 8 10.00 Light Rain SCT060 SCT070 OVC110 64.4 57.2 78% 30.06 0.0
15 03:36 S 6 10.00 Light Rain SCT060 BKN080 OVC110 64.4 57.2 78% 30.07 0.0
15 03:16 S 8 10.00 Light Rain OVC100 66.2 55.4 68% 30.07 0.0
15 02:55 S 7 10.00 Mostly Cloudy SCT090 BKN110 66.2 55.4 68% 30.07 0.0
15 02:35 S 6 10.00 Partly Cloudy SCT090 66.2 55.4 68% 30.06 0.0
15 02:15 S 6 10.00 Fair CLR 64.4 57.2 78% 30.05 0.0
15 01:55 SE 7 10.00 Fair CLR 66.2 55.4 68% 30.04 0.0
15 01:35 SE 6 10.00 Fair CLR 66.2 55.4 68% 30.05 0.0
15 01:15 SE 6 10.00 Fair CLR 66.2 55.4 68% 30.05 0.0
15 00:55 E 3 10.00 Fair CLR 66.2 55.4 68% 30.07 0.0
15 00:35 Calm 10.00 Fair CLR 66.2 57.2 73% 30.06 0.0
15 00:16 SE 5 10.00 Fair CLR 66.2 55.4 68% 30.05 0.0
14 23:56 SE 6 10.00 Fair CLR 66.2 55.4 68% 30.05 0.0
14 23:35 Calm 10.00 Fair CLR 64.4 57.2 78% 30.06 0.0
14 23:15 Calm 10.00 Fair CLR 64.4 59 83% 30.06 0.0
14 22:55 Calm 10.00 Fair CLR 64.4 57.2 78% 30.05 0.0
14 22:35 Calm 10.00 Fair CLR 64.4 57.2 78% 30.06 0.0
14 22:15 Calm 10.00 Fair CLR 66.2 57.2 73% 30.06 0.0
14 21:55 Calm 10.00 Fair CLR 69.8 55.4 60% 30.06 0.0
14 21:35 E 3 10.00 Fair CLR 71.6 55.4 57% 30.06 0.0
14 21:16 E 3 10.00 Fair CLR 69.8 57.2 64% 30.05 0.0
14 20:56 Calm 10.00 Fair CLR 69.8 59 69% 30.06 0.0
14 20:35 E 3 10.00 Fair CLR 73.4 53.6 50% 30.06 0.0
14 20:15 E 3 10.00 Fair CLR 73.4 55.4 53% 30.06 0.0
14 19:55 Calm 10.00 Fair CLR 75.2 55.4 50% 78 30.06 0.0
14 19:35 E 3 10.00 Fair CLR 75.2 53.6 47% 78 30.06 0.0
14 19:15 Calm 10.00 Fair CLR 75.2 55.4 50% 78 30.06 0.0
14 18:55 Calm 10.00 Fair CLR 75.2 53.6 47% 78 30.07 0.0
14 18:35 Calm 10.00 Fair CLR 75.2 53.6 47% 78 30.06 0.0
14 18:15 Calm 10.00 Fair CLR 75.2 53.6 47% 78 30.06 0.0
14 17:56 N 5 10.00 Light Rain CLR 77 53.6 44% 78 30.06 0.0
14 17:36 NE 7 10.00 Fair CLR 77 53.6 44% 78 30.06 0.0
Date Time (cdt) Wind (mph) Vis. (mi.) Weather Sky Cond. Air Dwpt Max. Min. Relative Humidity Wind Chill (°F) Heat Index (°F) altimeter (in) sea level (mb) 1 hr 3 hr 6 hr
6 hour
Temperature (ºF) Pressure Precipitation (in)